[[{"header":{"parameterUnit":"m.s-1","parameterCategory":1,"la1":30.2991,"la2":30.254,"lo1":-89.0895,"lo2":-89.0444,"dy":0.0017,"dx":0.0017,"nx":28,"ny":28,"refTime":"2025-03-27T21:00:00:Z","depth":0,"parameterNumber":2,"parameterNumberName":"U-component_of_WINDS"},"data":[0,0,0,0,0,0,0,0,0,0,0,0,0,0,0,0,0,0,0,0,0,0,0,0,0,0,0,0,0,0,0,0,0,0,0,0,0,0,0,0,0,0,0,0,0,0,0,0,0,0,0,0,0,0,0,0,0,0,-5.0948,-5.0949,0,-5.1079,-5.1081,-5.1082,-5.1114,-5.1114,-5.1113,-5.1112,-5.1245,-5.1249,-5.1253,0,0,0,0,0,0,0,0,0,0,0,0,0,-5.0723,-5.0727,-5.0947,-5.0949,-5.0951,-5.1079,-5.1081,-5.1083,-5.1115,-5.1113,-5.1112,-5.1111,-5.1243,-5.1248,-5.1254,0,0,0,0,0,0,0,0,0,0,0,0,0,-5.0834,-5.0728,-5.0947,-5.0982,-5.0987,-5.1079,-5.1081,-5.1083,-5.1115,-5.1113,-5.1112,-5.1111,-5.1242,-5.1248,-5.1254,-5.132,0,0,-5.1274,-5.1277,0,0,0,0,0,0,0,0,-5.0827,-5.0842,-5.0975,-5.098,-5.0985,-5.1079,-5.1051,-5.1163,-5.1115,-5.1066,-5.1112,-5.111,-5.1191,-5.1201,-5.1229,-5.1327,-5.1332,-5.1275,-5.1279,-5.1282,-5.1283,0,0,0,0,0,0,0,-5.082,-5.0837,-5.1,-5.0977,-5.0983,-5.0991,-5.1005,-5.1072,-5.1134,-5.107,-5.1073,-5.1088,-5.1193,-5.1222,-5.1232,-5.1334,-5.1275,-5.128,-5.1284,-5.1287,-5.1495,-5.1496,0,0,0,0,0,0,-5.0806,-5.083,-5.0995,-5.1004,-5.0902,-5.0996,-5.1012,-5.105,-5.1133,-5.1145,-5.1089,-5.1089,-5.1212,-5.1224,-5.1237,-5.132,-5.1282,-5.1288,-5.1291,-5.1493,-5.1495,-5.1497,0,0,0,0,0,0,-5.0801,-5.0821,-5.099,-5.0918,-5.094,-5.1002,-5.1044,-5.1054,-5.1083,-5.1148,-5.1159,-5.1108,-5.1211,-5.1228,-5.13,-5.1325,-5.1291,-5.1296,-5.1491,-5.1494,-5.1496,-5.1486,0,0,0,0,0,0,-5.0795,-5.0819,-5.0844,-5.0918,-5.0944,-5.1051,-5.1045,-5.1057,-5.1094,-5.1096,-5.1168,-5.1179,-5.1212,-5.129,-5.1306,-5.1333,-5.1302,-5.1489,-5.1492,-5.1495,-5.1484,-5.1488,-5.1491,0,0,0,0,0,-5.0786,-5.0835,-5.0845,-5.0865,-5.0977,-5.1052,-5.1067,-5.1104,-5.1096,-5.1122,-5.1165,-5.1176,-5.132,-5.1297,-5.1316,-5.1345,-5.1488,-5.1491,-5.1495,-5.1483,-5.1487,-5.1491,0,0,0,0,0,0,-5.0761,-5.0846,-5.0857,-5.0932,-5.0985,-5.1057,-5.1091,-5.1107,-5.1163,-5.1162,-5.1205,-5.1221,-5.1291,-5.1326,-5.1298,-5.1414,-5.1404,-5.1411,-5.1388,-5.1393,-5.1396,-5.1385,-5.1307,0,0,0,0,0,-5.0765,-5.082,-5.089,-5.0949,-5.0975,-5.1029,-5.1063,-5.1088,-5.1144,-5.1166,-5.1213,-5.1267,-5.1324,-5.1361,-5.1417,-5.1491,-5.1507,-5.152,-5.1523,-5.1526,-5.1531,-5.1573,-5.158,-5.1509,-5.1509,-5.1509,0,0,-5.0772,-5.0825,-5.0856,-5.0945,-5.0989,-5.1044,-5.1047,-5.1105,-5.1147,-5.1175,-5.1245,-5.1283,-5.1346,-5.1419,-5.1453,-5.145,-5.1555,-5.153,-5.1532,-5.1536,-5.1577,-5.1584,-5.159,-5.1511,-5.1511,-5.151,0,0,-5.0812,-5.0858,-5.0913,-5.0957,-5.1024,-5.106,-5.1073,-5.1145,-5.117,-5.1243,-5.1265,-5.1316,-5.1413,-5.1458,-5.1493,-5.1554,-5.1567,-5.1571,-5.1587,-5.1627,-5.1633,-5.1638,-5.1659,-5.1666,-5.1577,-5.1577,-5.1577,0,-5.0812,-5.0897,-5.0938,-5.0996,-5.1034,-5.1065,-5.112,-5.1161,-5.1242,-5.1268,-5.1264,-5.1389,-5.1433,-5.1517,-5.1532,-5.156,-5.1576,-5.1561,-5.1629,-5.1634,-5.164,-5.166,-5.1668,-5.1577,-5.1577,-5.1577,-5.1577,0,-5.0893,-5.0951,-5.0987,-5.1067,-5.111,-5.1166,-5.1216,-5.1254,-5.1276,-5.1313,-5.1387,-5.1442,-5.151,-5.1533,-5.1554,-5.1621,-5.1616,-5.162,-5.161,-5.1646,-5.1665,-5.1674,-5.1577,-5.1577,-5.1577,-5.1577,0,0,-5.0918,-5.1022,-5.1034,-5.1071,-5.1149,-5.1195,-5.1253,-5.1321,-5.1353,-5.141,-5.1459,-5.1543,-5.1547,-5.1587,-5.1614,-5.165,-5.1694,-5.1649,-5.1651,-5.1655,-5.1771,-5.1766,-5.1774,-5.1705,-5.1707,-5.1708,-5.1765,0,-5.0967,-5.1072,-5.1113,-5.1198,-5.1253,-5.1284,-5.1334,-5.1387,-5.1424,-5.1476,-5.1516,-5.1574,-5.1576,-5.1601,-5.1638,-5.1681,-5.1718,-5.1678,-5.175,-5.1752,-5.1731,-5.1785,-5.178,-5.1831,-5.1773,-5.1775,-5.1776,0,-5.1038,-5.1096,-5.1187,-5.1259,-5.1284,-5.1329,-5.1395,-5.1444,-5.1506,-5.153,-5.1576,-5.1602,-5.1664,-5.1653,-5.1739,-5.1711,-5.1744,-5.177,-5.1773,-5.1779,-5.1764,-5.1791,-5.1848,-5.1855,-5.1788,-5.1787,-5.1786,0,-5.1046,-5.1147,-5.1215,-5.1246,-5.1332,-5.1363,-5.14,-5.1461,-5.15,-5.1558,-5.1584,-5.1648,-5.1683,-5.1733,-5.1775,-5.1763,-5.1858,-5.185,-5.1879,-5.1878,-5.1895,-5.1893,-5.1957,-5.192,-5.192,-5.1919,-5.1919,0,-5.1095,-5.115,-5.122,-5.1261,-5.1323,-5.137,-5.143,-5.147,-5.1524,-5.1573,-5.1605,-5.1651,-5.1705,-5.1758,-5.1792,-5.1859,-5.1875,-5.1895,-5.1903,-5.1892,-5.1889,-5.1912,-5.1908,-5.1922,-5.1921,-5.1921,-5.192,0,-5.1114,-5.1163,-5.1239,-5.1315,-5.1336,-5.1378,-5.1444,-5.1485,-5.1524,-5.1587,-5.1604,-5.1666,-5.173,-5.1778,-5.1862,-5.1885,-5.1955,-5.1964,-5.1934,-5.1938,-5.1964,-5.196,-5.2042,-5.2056,-5.2011,-5.2011,-5.2012,0,-5.1141,-5.1184,-5.1265,-5.1301,-5.1339,-5.1396,-5.1436,-5.1485,-5.1525,-5.16,-5.1633,-5.17,-5.1755,-5.1857,-5.1909,-5.1973,-5.1983,-5.2008,-5.1993,-5.198,-5.1982,-5.1978,-5.1983,-5.2009,-5.2009,-5.2009,-5.2009,0,-5.1184,-5.1207,-5.1264,-5.133,-5.1378,-5.1432,-5.1487,-5.1515,-5.1573,-5.1617,-5.1684,-5.1727,-5.1814,-5.1879,-5.195,-5.1988,-5.2008,-5.2014,-5.2024,-5.2011,-5.1992,-5.2002,-5.1938,-5.2011,-5.2011,-5.2011,-5.2011,-5.2011,-5.1207,-5.1246,-5.131,-5.1373,-5.142,-5.1471,-5.1514,-5.156,-5.1616,-5.169,-5.1716,-5.1785,-5.1847,-5.1943,-5.1983,-5.2037,-5.2037,-5.2052,-5.2055,-5.2058,-5.2056,-5.1985,-5.2051,-5.2051,-5.2051,-5.2051,-5.2051,0,-5.125,-5.1294,-5.1351,-5.1428,-5.1478,-5.1494,-5.1557,-5.1597,-5.1657,-5.1714,-5.1769,-5.1846,-5.1911,-5.1969,-5.2036,-5.2069,-5.208,-5.2085,-5.2082,-5.209,-5.2053,-5.2037,-5.2075,-5.2075,-5.2075,-5.2075,-5.2075,-5.2075,-5.1279,-5.1347,-5.1378,-5.1469,-5.1513,-5.158,-5.1614,-5.1662,-5.1708,-5.1792,-5.1847,-5.1885,-5.1942,-5.2015,-5.2075,-5.209,-5.2113,-5.2115,-5.2133,-5.2096,-5.2093,-5.209,-5.2075,-5.212,-5.212,-5.2166,-5.2166,-5.2167]},{"header":{"parameterUnit":"m.s-1","parameterCategory":1,"la1":30.2991,"la2":30.254,"lo1":-89.0895,"lo2":-89.0444,"dy":0.0017,"dx":0.0017,"nx":28,"ny":28,"refTime":"2025-03-27T21:00:00:Z","depth":0,"parameterNumber":3,"parameterNumberName":"V-component_of_WINDS"},"data":[0,0,0,0,0,0,0,0,0,0,0,0,0,0,0,0,0,0,0,0,0,0,0,0,0,0,0,0,0,0,0,0,0,0,0,0,0,0,0,0,0,0,0,0,0,0,0,0,0,0,0,0,0,0,0,0,0,0,3.7152,3.7154,0,3.7305,3.7307,3.7309,3.7379,3.7379,3.7379,3.7379,3.7531,3.7535,3.7539,0,0,0,0,0,0,0,0,0,0,0,0,0,3.6918,3.6922,3.7152,3.7154,3.7156,3.7305,3.7307,3.7309,3.7379,3.7379,3.7379,3.7379,3.7529,3.7534,3.7539,0,0,0,0,0,0,0,0,0,0,0,0,0,3.704,3.6923,3.7152,3.7209,3.7216,3.7304,3.7307,3.731,3.7379,3.7379,3.7379,3.7379,3.7528,3.7534,3.754,3.7582,0,0,3.7559,3.7562,0,0,0,0,0,0,0,0,3.7033,3.7049,3.7199,3.7205,3.7213,3.7323,3.728,3.7401,3.7379,3.7317,3.7379,3.7378,3.7461,3.7473,3.7502,3.7589,3.7596,3.756,3.7563,3.7566,3.7568,0,0,0,0,0,0,0,3.7025,3.7042,3.7213,3.7201,3.7209,3.7226,3.7243,3.7303,3.7388,3.7322,3.7328,3.7345,3.7465,3.7496,3.7506,3.7598,3.7559,3.7565,3.7569,3.7571,3.7731,3.7731,0,0,0,0,0,0,3.7007,3.7035,3.7208,3.7217,3.7121,3.7231,3.725,3.7288,3.7388,3.7403,3.7345,3.7348,3.7485,3.7499,3.7512,3.757,3.7566,3.7572,3.7575,3.773,3.7731,3.7731,0,0,0,0,0,0,3.7002,3.7022,3.7202,3.7128,3.7152,3.7235,3.7277,3.7291,3.7322,3.7405,3.742,3.7361,3.7486,3.7503,3.7565,3.7576,3.7575,3.758,3.773,3.773,3.7731,3.7686,0,0,0,0,0,0,3.6995,3.702,3.7037,3.7128,3.7156,3.7253,3.7277,3.7294,3.7333,3.7338,3.7424,3.7438,3.7487,3.7555,3.7571,3.7585,3.7585,3.7729,3.773,3.7731,3.7686,3.7685,3.7683,0,0,0,0,0,3.6986,3.7016,3.7037,3.7058,3.7179,3.7253,3.7269,3.7326,3.7333,3.7351,3.7405,3.7435,3.7572,3.7561,3.758,3.7595,3.7728,3.773,3.7731,3.7687,3.7685,3.7683,0,0,0,0,0,0,3.6922,3.7029,3.7054,3.7114,3.7174,3.7265,3.7289,3.7321,3.738,3.7382,3.7448,3.7467,3.7524,3.7566,3.7551,3.7643,3.7653,3.7658,3.7614,3.7612,3.7611,3.76,3.759,0,0,0,0,0,3.6915,3.6968,3.7058,3.7102,3.7132,3.7205,3.724,3.7279,3.7343,3.7369,3.7427,3.7487,3.7545,3.7581,3.7637,3.7693,3.7714,3.7713,3.7711,3.7709,3.7713,3.7748,3.7749,3.7735,3.7735,3.7735,0,0,3.6901,3.6966,3.6995,3.7091,3.7143,3.7196,3.7226,3.728,3.732,3.7376,3.744,3.7485,3.7557,3.7617,3.7646,3.7653,3.7722,3.7711,3.7709,3.7713,3.7749,3.7751,3.7752,3.7736,3.7736,3.7735,0,0,3.6903,3.6957,3.7001,3.7053,3.7132,3.7181,3.7191,3.7278,3.7311,3.7376,3.7421,3.7468,3.7565,3.7615,3.7653,3.7677,3.7708,3.7694,3.7685,3.7719,3.772,3.7721,3.7732,3.7735,3.7697,3.7697,3.7697,0,3.6875,3.6958,3.7019,3.7073,3.7114,3.717,3.7216,3.7263,3.7355,3.7382,3.7389,3.7514,3.7566,3.764,3.7646,3.7674,3.7689,3.7685,3.7715,3.7717,3.7719,3.773,3.7734,3.7695,3.7695,3.7695,3.7695,0,3.6921,3.6977,3.7004,3.7094,3.7139,3.7187,3.7257,3.7295,3.733,3.7378,3.7445,3.751,3.7583,3.7603,3.7636,3.7682,3.7685,3.7702,3.7714,3.7718,3.7729,3.7734,3.7692,3.7693,3.7693,3.7694,0,0,3.6885,3.7012,3.7021,3.7064,3.7156,3.72,3.7252,3.7325,3.7357,3.7419,3.7465,3.7547,3.7565,3.7608,3.7648,3.7678,3.7696,3.7693,3.7695,3.7693,3.7753,3.774,3.7744,3.7716,3.7717,3.7718,3.7747,0,3.6901,3.6998,3.7057,3.713,3.7185,3.724,3.7285,3.7346,3.7393,3.7446,3.7497,3.7555,3.7573,3.76,3.7632,3.7687,3.7709,3.7685,3.776,3.7762,3.7742,3.7749,3.7735,3.776,3.7752,3.7753,3.7753,0,3.6932,3.6996,3.7075,3.7165,3.719,3.723,3.7303,3.7352,3.7423,3.7455,3.7505,3.7547,3.7604,3.7611,3.7691,3.7674,3.7708,3.774,3.7742,3.7752,3.7759,3.7761,3.7769,3.7773,3.7761,3.776,3.7759,0,3.6901,3.7006,3.7069,3.7104,3.7208,3.7236,3.728,3.7351,3.7393,3.7456,3.7484,3.7552,3.759,3.7642,3.77,3.77,3.7776,3.7787,3.7805,3.7804,3.7819,3.7817,3.7834,3.7838,3.7838,3.7838,3.7838,0,3.6913,3.696,3.7057,3.7095,3.715,3.7217,3.7269,3.7318,3.7381,3.743,3.748,3.7525,3.7599,3.7653,3.7699,3.776,3.7776,3.7804,3.7816,3.7801,3.7797,3.7825,3.7825,3.7839,3.7839,3.7838,3.7838,0,3.6887,3.6954,3.7026,3.7121,3.7146,3.7182,3.7263,3.7302,3.7353,3.7414,3.7432,3.7511,3.7577,3.7641,3.7729,3.776,3.7822,3.7836,3.7798,3.7805,3.7821,3.7819,3.7856,3.7865,3.7861,3.7861,3.7861,0,3.6891,3.693,3.7029,3.7067,3.7112,3.717,3.7214,3.7282,3.7325,3.741,3.744,3.751,3.757,3.7673,3.7738,3.7806,3.7824,3.7833,3.7835,3.7819,3.7827,3.7825,3.783,3.7831,3.7831,3.7831,3.783,0,3.6892,3.6925,3.6986,3.706,3.7111,3.7172,3.7234,3.7262,3.7341,3.7387,3.7457,3.7504,3.7596,3.7666,3.7742,3.7787,3.7823,3.7829,3.7838,3.7823,3.78,3.7815,3.7796,3.7828,3.7828,3.7829,3.7829,3.7829,3.6884,3.6921,3.6999,3.7066,3.7121,3.7179,3.7222,3.7279,3.7339,3.7421,3.7457,3.7528,3.76,3.7707,3.7752,3.7808,3.7816,3.7827,3.7831,3.7833,3.7831,3.779,3.7822,3.7822,3.7822,3.7822,3.7822,0,3.6889,3.6943,3.7004,3.7092,3.7145,3.7176,3.7247,3.729,3.7353,3.7418,3.7477,3.7559,3.7627,3.7699,3.7771,3.7803,3.7821,3.782,3.7819,3.7829,3.7818,3.7805,3.7804,3.7804,3.7804,3.7804,3.7804,3.7804,3.6898,3.6965,3.7007,3.7101,3.7154,3.7226,3.7264,3.7318,3.7372,3.7461,3.7519,3.7566,3.7635,3.7713,3.7778,3.7797,3.7822,3.7817,3.7841,3.7829,3.783,3.7831,3.7819,3.7821,3.7822,3.7848,3.7848,3.7849]}]]